This demonstration page uses our WeatherBlox Daily Observations layout. Learn more.

Left ArrowRight Arrow

39.51506, -84.39828

Hourly Observations for June 19, 2017

Temp ( °F °C ) Dew Point ( °F °C ) Humidity (%) Winds ( mph kmh ) Pressure ( in mb ) Visibility ( mi km ) Precip ( " mm )
1:15 am 01:15 Mostly Cloudy with Light Rain 69 20.8 65 18.1 85 85 N N/A 29.83 1010 10 16 N/A
1:35 am 01:35 Cloudy with Light Rain 69 20.8 65 18.1 85 85 SSW 3 6 29.83 1010 10 16 N/A
1:55 am 01:55 Cloudy with Light Rain 70 21.2 65 18.6 85 85 N N/A 29.83 1010 10 16 N/A
2:15 am 02:15 Cloudy with Light Rain 70 20.9 65 18.2 85 85 N N/A 29.83 1010 10 16 N/A
2:35 am 02:35 Cloudy 69 20.8 65 18.2 85 85 N N/A 29.83 1010 10 16 N/A
2:55 am 02:55 Cloudy 69 20.8 65 18.2 85 85 N N/A 29.80 1009 10 16 N/A
3:15 am 03:15 Mostly Cloudy 69 20.8 65 18.2 85 85 W 3 6 29.80 1009 10 16 N/A
3:35 am 03:35 Mostly Cloudy 69 20.8 65 18.3 86 86 SW 3 6 29.83 1010 10 16 N/A
3:55 am 03:55 Partly Cloudy 69 20.8 65 18.3 86 86 SW 5 7 29.83 1010 7 11 N/A
4:15 am 04:15 Hazy 69 20.8 65 18.5 87 87 WSW 3 6 29.83 1010 5 8 N/A
4:35 am 04:35 Hazy 69 20.8 65 18.5 87 87 SW 3 6 29.83 1010 5 8 N/A
4:55 am 04:55 Hazy 69 20.8 65 18.5 87 87 W 3 6 29.83 1010 5 8 N/A
5:15 am 05:15 Clear with Mist and Fog 67 19.5 63 17.1 86 86 N N/A 29.83 1010 3 5 N/A
5:35 am 05:35 Mostly Cloudy with Fog 67 19.5 63 17.1 86 86 N N/A 29.83 1010 1 1 N/A
5:55 am 05:55 Clear with Mist and Fog 67 19.5 63 17.1 86 86 SW 3 6 29.83 1010 4 6 N/A
6:15 am 06:15 Mostly Cloudy with Mist and Fog 64 18 60 15.8 87 87 SW 5 7 29.85 1011 2 3 N/A
6:35 am 06:35 Cloudy with Haze 69 20.8 65 18.5 87 87 N N/A 29.85 1011 5 8 N/A
6:55 am 06:55 Cloudy with Mist and Fog 69 20.6 65 18.3 87 87 N N/A 29.85 1011 1 1 N/A
7:15 am 07:15 Hazy 69 20.8 65 18.5 87 87 SSW 3 6 29.85 1011 5 8 N/A
7:35 am 07:35 Sunny 69 20.8 65 18.5 87 87 SW 3 6 29.85 1011 10 16 N/A
7:55 am 07:55 Sunny 69 20.8 65 18.5 87 87 SSW 6 9 29.85 1011 10 16 N/A
8:15 am 08:15 Sunny 69 20.8 65 18.4 86 86 SW 3 6 29.85 1011 10 16 N/A
8:35 am 08:35 Sunny 71 21.5 65 18.3 82 82 WSW 6 9 29.85 1011 10 16 N/A
8:55 am 08:55 Sunny 74 23.4 67 19.7 80 80 WSW 7 11 29.88 1012 10 16 N/A
9:15 am 09:15 Sunny 74 23.6 67 19.6 78 78 WSW 5 7 29.88 1012 10 16 N/A
9:35 am 09:35 Sunny 74 23.6 66 18.7 74 74 WSW 7 11 29.88 1012 10 16 N/A
9:55 am 09:55 Sunny 74 23.6 64 18 71 71 W 6 9 29.88 1012 7 11 N/A
10:15 am 10:15 Sunny 74 23.6 63 17 67 67 WSW 8 13 29.88 1012 10 16 N/A
10:35 am 10:35 Sunny 77 25.1 63 17.4 62 62 WSW 9 15 29.88 1012 10 16 N/A
10:55 am 10:55 Sunny 77 25.1 63 17 61 61 WSW 6 9 29.88 1012 10 16 N/A
11:15 am 11:15 Sunny 77 25.1 59 15.1 54 54 WSW 9 15 29.88 1012 10 16 N/A
11:35 am 11:35 Sunny 77 25.1 60 15.3 55 55 SW 9 15 29.88 1012 10 16 N/A
11:55 am 11:55 Partly Cloudy 78 25.7 61 16.1 55 55 W 9 15 29.88 1012 10 16 N/A
12:15 pm 12:15 Partly Cloudy 79 26.3 59 14.8 49 49 SW 10 17 29.88 1012 10 16 N/A
12:35 pm 12:35 Partly Cloudy 80 26.5 59 15.1 50 50 SW 9 15 29.88 1012 10 16 N/A
12:55 pm 12:55 Partly Cloudy 80 26.5 57 14 46 46 SW 10 17 29.88 1012 10 16 N/A
1:15 pm 13:15 Partly Cloudy 80 26.5 56 13.6 45 45 SW 10 17 29.88 1012 10 16 N/A
1:35 pm 13:35 Sunny 80 26.6 55 13 43 43 SW 10 17 29.85 1011 10 16 N/A
1:55 pm 13:55 Sunny 81 27.2 54 12.2 39 39 SW 12 19 29.83 1010 10 16 N/A
2:15 pm 14:15 Mostly Cloudy 80 26.5 54 12.3 41 41 WSW 12 19 29.85 1011 10 16 N/A
2:35 pm 14:35 Cloudy with Rain 74 23.5 53 11.9 48 48 SW 21 33 29.88 1012 10 16 N/A
2:55 pm 14:55 Partly Cloudy 72 22.4 58 14.5 61 61 SW 9 15 29.88 1012 10 16 N/A
3:15 pm 15:15 Partly Cloudy 77 24.9 58 14.7 53 53 SSW 6 9 29.88 1012 10 16 N/A
3:35 pm 15:35 Mostly Cloudy with Light Rain 75 23.8 59 15.1 58 58 W 15 24 29.88 1012 10 16 N/A
3:55 pm 15:55 Cloudy with Light Rain 74 23.6 55 12.7 51 51 SW 8 13 29.85 1011 10 16 N/A
4:15 pm 16:15 Partly Cloudy 77 25.1 58 14.4 52 52 WSW 12 19 29.85 1011 10 16 N/A
4:35 pm 16:35 Sunny 80 26.5 60 15.7 52 52 WSW 10 17 29.85 1011 10 16 N/A
4:55 pm 16:55 Partly Cloudy 80 26.5 57 13.7 45 45 SW 14 22 29.85 1011 10 16 N/A
5:15 pm 17:15 Partly Cloudy 80 26.5 51 10.8 37 37 W 12 19 29.85 1011 10 16 N/A
5:35 pm 17:35 Partly Cloudy 77 25.1 53 11.5 43 43 WSW 9 15 29.85 1011 10 16 N/A
5:55 pm 17:55 Sunny 80 26.5 51 10.5 37 37 WSW 16 26 29.85 1011 10 16 N/A
6:15 pm 18:15 Sunny 80 26.5 52 11 38 38 WSW 10 17 29.85 1011 10 16 N/A
6:35 pm 18:35 Sunny 80 26.5 52 11 38 38 WSW 13 20 29.85 1011 10 16 N/A
6:55 pm 18:55 Sunny 80 26.5 52 11.1 38 38 WSW 12 19 29.85 1011 10 16 N/A
7:15 pm 19:15 Partly Cloudy 80 26.5 52 11.3 39 39 WSW 17 28 29.85 1011 10 16 N/A
7:35 pm 19:35 Partly Cloudy 80 26.5 52 10.9 38 38 WSW 10 17 29.85 1011 10 16 N/A
7:55 pm 19:55 Partly Cloudy 80 26.4 50 10 36 36 W 10 17 29.88 1012 10 16 N/A
8:15 pm 20:15 Sunny 77 25.1 47 8.1 34 34 W 8 13 29.88 1012 10 16 N/A
8:35 pm 20:35 Sunny 75 23.7 47 8.1 37 37 W 6 9 29.88 1012 10 16 N/A
8:55 pm 20:55 Partly Cloudy 74 23.6 49 9.7 41 41 WSW 6 9 29.91 1013 10 16 N/A
9:15 pm 21:15 Partly Cloudy 74 23.6 53 11.4 46 46 WSW 5 7 29.91 1013 10 16 N/A
9:35 pm 21:35 Clear 69 20.8 55 13 61 61 W 3 6 29.91 1013 10 16 N/A
9:55 pm 21:55 Clear 69 20.8 58 14.7 68 68 W 3 6 29.91 1013 10 16 N/A
10:15 pm 22:15 Clear 67 19.5 57 13.9 70 70 WSW 3 6 29.94 1014 10 16 N/A
10:35 pm 22:35 Clear 64 18 56 13.4 75 75 N N/A 29.94 1014 10 16 N/A
10:55 pm 22:55 Clear 63 17 55 12.8 76 76 N N/A 29.94 1014 10 16 N/A
11:15 pm 23:15 Clear 62 16.7 55 12.6 77 77 NNE 5 7 29.97 1015 10 16 N/A
11:35 pm 23:35 Clear 65 18.5 54 12.4 68 68 N N/A 29.97 1015 10 16 N/A
11:55 pm 23:55 Clear 68 20.2 57 13.9 67 67 N N/A 29.97 1015 10 16 N/A

Powered by AerisWeather